This demonstration page uses our WeatherBlox Daily Observations layout. Learn more.

Hourly Observations for October 4, 2020

Temp ( °F °C ) Dew Point ( °F °C ) Humidity (%) Winds ( mph kmh ) Pressure ( in mb ) Visibility ( mi km ) Precip ( " mm )
12:54 am 00:54 Clear 36 2.2 34 1.1 93 93 Calm 30.25 1025 10 16.0934 0 0
1:54 am 01:54 Clear 38 3.3 35 1.7 89 89 Calm 30.26 1025 10 16.0934 0 0
2:54 am 02:54 Clear 34 1.1 31 -0.6 89 89 Calm 30.27 1025 10 16.0934 0 0
3:54 am 03:54 Clear 34 1.1 32 0 92 92 N 5 7 30.29 1026 10 16.0934 0 0
4:10 am 04:10 Partly Cloudy 33 0.6 31 -0.6 92 92 N 6 9 30.34 1027 10 16.0934 0 0
4:54 am 04:54 Clear 35 1.7 32 0 89 89 Calm 30.29 1026 10 16.0934 0 0
5:10 am 05:10 Partly Cloudy with Scattered Snow Showers 32 0 30 -1.1 92 92 N 5 7 30.34 1027 2.5 4.02335 0.001 0.001
5:27 am 05:27 Partly Cloudy with Isolated Snow Showers 34 1.1 32 0 92 92 NNW 3 6 30.34 1028 9 14.48406 0.001 0.001
5:41 am 05:41 Mostly Cloudy with Light Snow 33 0.6 31 -0.6 92 92 NNW 3 6 30.35 1028 9 14.48406 0.001 0.001
5:54 am 05:54 Mostly Cloudy with Light Snow 34 1.1 32 0 92 92 N 3 6 30.31 1026 9 14.48406 0.001 0.001
6:07 am 06:07 Clear with Mist and Fog 34 1.1 32 0 92 92 Calm 30.35 1028 10 16.0934 0.001 0.001
6:54 am 06:54 Clear with Mist and Fog 33 0.6 30 -1.1 89 89 Calm 30.32 1027 10 16.0934 0.001 0.001
7:32 am 07:32 Partly Cloudy with Mist and Fog 33 0.6 30 -1.1 89 89 Calm 30.37 1028 10 16.0934 0 0
7:54 am 07:54 Partly Cloudy with Mist and Fog 33 0.6 30 -1.1 89 89 Calm 30.33 1027 10 16.0934 0 0
8:54 am 08:54 Sunny with Mist and Fog 40 4.4 37 2.8 89 89 Calm 30.33 1027 10 16.0934 0 0
9:54 am 09:54 Partly Cloudy with Mist and Fog 48 8.9 42 5.6 80 80 ESE 3 6 30.33 1027 10 16.0934 0 0
10:54 am 10:54 Sunny with Mist and Fog 55 12.8 43 6.1 64 64 VRB 3 6 30.32 1027 10 16.0934 0 0
11:54 am 11:54 Sunny with Mist and Fog 60 15.6 42 5.6 52 52 SE 8 13 30.3 1026 10 16.0934 0 0
12:54 pm 12:54 Sunny with Mist and Fog 64 17.8 42 5.6 45 45 S 13 20 30.28 1025 10 16.0934 0 0
1:54 pm 13:54 Sunny with Mist and Fog 67 19.4 42 5.6 41 41 SSE 12 19 30.24 1024 10 16.0934 0 0
2:54 pm 14:54 Sunny 67 19.4 41 5 39 39 S 7 11 30.21 1023 10 16.0934 0 0
3:54 pm 15:54 Sunny 69 20.6 42 5.6 38 38 S 12 19 30.17 1022 10 16.0934 0 0
4:54 pm 16:54 Sunny 69 20.6 41 5 36 36 S 17 28 30.15 1021 10 16.0934 0 0
5:54 pm 17:54 Sunny 67 19.4 42 5.6 41 41 S 14 22 30.14 1021 10 16.0934 0 0
6:54 pm 18:54 Sunny 62 16.7 42 5.6 48 48 S 10 17 30.15 1021 10 16.0934 0 0
7:54 pm 19:54 Clear 59 15 41 5 51 51 SSE 12 19 30.15 1021 10 16.0934 0 0
8:54 pm 20:54 Clear 58 14.4 41 5 53 53 SSE 12 19 30.15 1021 10 16.0934 0 0
9:54 pm 21:54 Clear 57 13.9 40 4.4 53 53 SSE 15 24 30.13 1020 10 16.0934 0 0
10:54 pm 22:54 Clear 55 12.8 40 4.4 57 57 S 15 24 30.13 1020 10 16.0934 0 0
11:54 pm 23:54 Clear 53 11.7 40 4.4 61 61 S 13 20 30.11 1020 10 16.0934 0 0

Powered by AerisWeather